Location: ????????
(54.6123°N, 39.2099°E)
Time: 06:53:44
(UTC+00:00)

NOSS 3-2 (A) - Pass Details

Date: 19 May 2025
Orbit: 674 x 1530 km, 63.4° (Epoch: 29 May)

Event Time Altitude Azimuth Distance (km) Brightness Sun altitude
Rises 20:14:06 0° 304° (NW) 3,613 7.3 -14.1°
Reaches altitude 10° 20:16:29 10° 308° (NW) 2,778 6.7 -14.2°
Maximum altitude 20:23:04 59° 28° (NNE) 1,334 4.4 -14.4°
Drops below altitude 10° 20:31:10 10° 107° (ESE) 3,394 6.0 -14.7°
Sets 20:34:22 0° 111° (ESE) 4,468 6.6 -14.8°
